Tracking 25703 objects as of 2-Jul-2022
HD Live streaming from Space Station
objects crossing your sky now

COSMOS 457

Track COSMOS 457 now!
10-day predictions
COSMOS 457 is classified as:


NORAD ID: 5614
Int'l Code: 1971-099A
Perigee: 1,189.2 km
Apogee: 1,224.7 km
Inclination: 74.0 °
Period: 109.4 minutes
Semi major axis: 7577 km
RCS: 3.3674 m2 (large)
Launch date: November 20, 1971
Source: Commonwealth of Independent States (former USSR) (CIS)
Launch site: PLESETSK MISSILE AND SPACE COMPLEX (PKMTR)
aabbcc
Your satellite tracking list
Your tracking list is empty




NASA's NSSDC Master Catalog

Two Line Element Set (TLE):
1 05614U 71099A   22182.89855259 -.00000389  00000-0 -97438-3 0  9994
2 05614  74.0359  16.7108 0023437 207.7671 259.3694 13.16058772431284
Source of the keplerian elements: AFSPC